This is the latest recevied weather packets stored in our database for station/object SQ9SMC-13. If no packets are shown the sender has not sent any weather packets the latest 10 day(s).
| Time | Temp. | Humidity | Pressure | Rain* | Wind** | Luminosity | Snow |
|---|---|---|---|---|---|---|---|
| 1777408202 | -0.56° C | 73% | 1026 hPa | 0 mm | - | 0 W/m² | - |
| 1777407903 | 0° C | 73% | 1026 hPa | 0 mm | - | 0 W/m² | - |
| 1777407605 | 0° C | 72% | 1026.1 hPa | 0 mm | - | 0 W/m² | - |
| 1777407304 | 0° C | 71% | 1025.8 hPa | 0 mm | - | 0 W/m² | - |
| 1777407003 | 0° C | 69% | 1025.9 hPa | 0 mm | - | 0 W/m² | - |
| 1777406703 | 0.56° C | 69% | 1025.9 hPa | 0 mm | - | 0 W/m² | - |
| 1777406404 | 0.56° C | 67% | 1025.8 hPa | 0 mm | - | 0 W/m² | - |
| 1777406103 | 1.11° C | 66% | 1025.8 hPa | 0 mm | - | 0 W/m² | - |
| 1777405803 | 1.67° C | 66% | 1025.8 hPa | 0 mm | - | 0 W/m² | - |
| 1777405503 | 1.67° C | 65% | 1025.8 hPa | 0 mm | - | 0 W/m² | - |
| 1777405203 | 1.67° C | 65% | 1025.8 hPa | 0 mm | - | 0 W/m² | - |
| 1777404903 | 1.67° C | 65% | 1025.7 hPa | 0 mm | - | 0 W/m² | - |
| 1777404611 | 1.67° C | 65% | 1025.8 hPa | 0 mm | - | 0 W/m² | - |
| 1777404303 | 2.22° C | 63% | 1025.8 hPa | 0 mm | - | 0 W/m² | - |
| 1777404004 | 2.78° C | 61% | 1025.8 hPa | 0 mm | - | 0 W/m² | - |
| 1777403703 | 2.78° C | 60% | 1025.8 hPa | 0 mm | - | 0 W/m² | - |
| 1777403404 | 3.33° C | 58% | 1025.8 hPa | 0 mm | - | 0 W/m² | - |
| 1777403104 | 3.89° C | 58% | 1025.7 hPa | 0 mm | - | 0 W/m² | - |
| 1777402803 | 3.89° C | 56% | 1025.7 hPa | 0 mm | - | 0 W/m² | - |
| 1777402502 | 4.44° C | 54% | 1025.8 hPa | 0 mm | - | 0 W/m² | - |
| 1777402203 | 5° C | 50% | 1025.6 hPa | 0 mm | - | 0 W/m² | - |
| 1777401907 | 5.56° C | 47% | 1025.7 hPa | 0 mm | - | 0 W/m² | - |
| 1777401603 | 6.11° C | 46% | 1025.8 hPa | 0 mm | - | 0 W/m² | - |
| 1777401305 | 6.11° C | 45% | 1025.5 hPa | 0 mm | - | 0 W/m² | - |
| 1777401004 | 6.11° C | 45% | 1025.6 hPa | 0 mm | - | 0 W/m² | - |
* Rain latest hour (hover to see other rain measurements)
** Current wind speed in m/s (hover to see current wind gust speed)